sat.trackr.live / text

‹ back to catalog

GAOFEN-12 05

NORAD 61571 · 2024-186A

PAYLOAD ACTIVE UNKNOWN

§ Identity

Operator
Country
PRC
Launch date
2024-10-15
Launch site
JSC
Launch vehicle
Mass (kg)
RCS (m²)

External: N2YO · Heavens-Above · Gunter

§ Orbital elements

Epoch: 2026-09-22T23:15:59.558112Z

Period
97.23 min
Inclination
97.9132°
Eccentricity
0.0001220
Mean motion
14.81019817 rev/d
Perigee alt
625.3 km
Apogee alt
627.0 km
Semi-major
7,004.2 km
B*
3.4576e-5
RAAN
272.8282°
Arg perigee
54.5377°
Mean anomaly
305.5949°
Rev number
10,381

§ Raw data

GAOFEN-12 051 61571U 24186A   26265.96943933  .00000216  00000+0  34576-4 0  99952 61571  97.9132 272.8282 0001220  54.5377 305.5949 14.81019817103818

JSON: /api/v1/satellites/61571 · /tle

For live sub-satellite position, see the globe view (requires WebGL).

§ Visibility from observer

Set your observer location to see the next 7 days of passes ≥ 10°. The values pass through the URL so the page stays shareable.

No JS? Fill the form by hand. The geolocation button needs JavaScript.